Time,TemperatureF,DewpointF,PressureIn,WindDirection,WindDirectionDegrees,WindSpeedMPH,WindSpeedGustMPH,Humidity,HourlyPrecipIn,Conditions,Clouds,dailyrainin,SolarRadiationWatts/m^2,SoftwareType,DateUTC
2013-03-17 00:02:00,50.0,20.0,-100.00,West,265,7.0,14.0,30,-99.99,,,0.00,0.000000,,2013-03-17 07:02:00,
2013-03-17 00:12:00,50.0,20.0,-100.00,West,265,7.0,14.0,30,-99.99,,,0.00,0.000000,,2013-03-17 07:12:00,
2013-03-17 00:42:00,52.0,21.0,-100.00,WNW,295,7.0,12.0,28,-99.99,,,0.00,0.000000,,2013-03-17 07:42:00,
2013-03-17 00:52:00,52.0,21.0,-100.00,WNW,295,7.0,12.0,28,-99.99,,,0.00,0.000000,,2013-03-17 07:52:00,
2013-03-17 01:02:00,52.0,21.0,-100.00,WNW,295,7.0,12.0,28,-99.99,,,0.00,0.000000,,2013-03-17 08:02:00,
2013-03-17 01:12:00,52.0,21.0,-100.00,WNW,295,7.0,12.0,28,-99.99,,,0.00,0.000000,,2013-03-17 08:12:00,
2013-03-17 01:42:00,50.0,20.0,-100.00,South,187,2.0,5.0,30,-99.99,,,0.00,0.000000,,2013-03-17 08:42:00,
2013-03-17 01:52:00,50.0,20.0,-100.00,South,187,2.0,5.0,30,-99.99,,,0.00,0.000000,,2013-03-17 08:52:00,
2013-03-17 02:02:00,50.0,20.0,-100.00,South,187,2.0,5.0,30,-99.99,,,0.00,0.000000,,2013-03-17 09:02:00,
2013-03-17 02:12:00,50.0,20.0,-100.00,South,187,2.0,5.0,30,-99.99,,,0.00,0.000000,,2013-03-17 09:12:00,
2013-03-17 02:42:00,46.0,20.0,-100.00,SSE,166,2.0,5.0,35,-99.99,,,0.00,0.000000,,2013-03-17 09:42:00,
2013-03-17 02:53:00,46.0,20.0,-100.00,SSE,166,2.0,5.0,35,-99.99,,,0.00,0.000000,,2013-03-17 09:53:00,
2013-03-17 03:03:00,46.0,20.0,-100.00,SSE,166,2.0,5.0,35,-99.99,,,0.00,0.000000,,2013-03-17 10:03:00,
2013-03-17 03:12:00,46.0,20.0,-100.00,SSE,166,2.0,5.0,35,-99.99,,,0.00,0.000000,,2013-03-17 10:12:00,
2013-03-17 03:42:00,47.0,21.0,-100.00,WSW,254,4.0,8.0,34,-99.99,,,0.00,0.000000,,2013-03-17 10:42:00,
2013-03-17 03:52:00,47.0,21.0,-100.00,WSW,254,4.0,8.0,34,-99.99,,,0.00,0.000000,,2013-03-17 10:52:00,
2013-03-17 04:02:00,47.0,21.0,-100.00,WSW,254,4.0,8.0,34,-99.99,,,0.00,0.000000,,2013-03-17 11:02:00,
2013-03-17 04:12:00,47.0,21.0,-100.00,WSW,254,4.0,8.0,34,-99.99,,,0.00,0.000000,,2013-03-17 11:12:00,
2013-03-17 04:42:00,39.0,19.0,-100.00,NW,311,1.0,3.0,45,-99.99,,,0.00,0.000000,,2013-03-17 11:42:00,
2013-03-17 04:52:00,39.0,19.0,-100.00,NW,311,1.0,3.0,45,-99.99,,,0.00,0.000000,,2013-03-17 11:52:00,
2013-03-17 05:02:00,39.0,19.0,-100.00,NW,311,1.0,3.0,45,-99.99,,,0.00,0.000000,,2013-03-17 12:02:00,
2013-03-17 05:12:00,39.0,19.0,-100.00,NW,311,1.0,3.0,45,-99.99,,,0.00,0.000000,,2013-03-17 12:12:00,
2013-03-17 05:42:00,42.0,19.0,-100.00,West,269,3.0,5.0,38,-99.99,,,-99.99,0.120000,,2013-03-17 12:42:00,
2013-03-17 05:52:00,42.0,19.0,-100.00,West,269,3.0,5.0,38,-99.99,,,-99.99,0.120000,,2013-03-17 12:52:00,
2013-03-17 06:01:00,42.0,19.0,-100.00,West,269,3.0,5.0,38,-99.99,,,-99.99,0.120000,,2013-03-17 13:01:00,
2013-03-17 06:12:00,42.0,19.0,-100.00,West,269,3.0,5.0,38,-99.99,,,-99.99,0.120000,,2013-03-17 13:12:00,
2013-03-17 06:42:00,35.0,19.0,-100.00,South,176,1.0,3.0,49,-99.99,,,0.00,0.230000,,2013-03-17 13:42:00,
2013-03-17 06:52:00,35.0,19.0,-100.00,South,176,1.0,3.0,49,-99.99,,,0.00,0.230000,,2013-03-17 13:52:00,
2013-03-17 07:02:00,35.0,19.0,-100.00,South,176,1.0,3.0,49,-99.99,,,0.00,0.230000,,2013-03-17 14:02:00,
2013-03-17 07:11:00,35.0,19.0,-100.00,South,176,1.0,3.0,49,-99.99,,,0.00,0.230000,,2013-03-17 14:11:00,
2013-03-17 07:42:00,30.0,18.0,-100.00,West,269,5.0,7.0,59,-99.99,,,0.00,9.760000,,2013-03-17 14:42:00,
2013-03-17 07:52:00,30.0,18.0,-100.00,West,269,5.0,7.0,59,-99.99,,,0.00,9.760000,,2013-03-17 14:52:00,
2013-03-17 08:02:00,30.0,18.0,-100.00,West,269,5.0,7.0,59,-99.99,,,0.00,9.760000,,2013-03-17 15:02:00,
2013-03-17 08:11:00,30.0,18.0,-100.00,West,269,5.0,7.0,59,-99.99,,,0.00,9.760000,,2013-03-17 15:11:00,
2013-03-17 08:42:00,40.0,21.0,-100.00,SSE,157,2.0,3.0,47,-99.99,,,-99.99,199.669998,,2013-03-17 15:42:00,
2013-03-17 08:53:00,40.0,21.0,-100.00,SSE,157,2.0,3.0,47,-99.99,,,-99.99,199.669998,,2013-03-17 15:53:00,
2013-03-17 09:03:00,40.0,21.0,-100.00,SSE,157,2.0,3.0,47,-99.99,,,-99.99,199.669998,,2013-03-17 16:03:00,
2013-03-17 09:12:00,40.0,21.0,-100.00,SSE,157,2.0,3.0,47,-99.99,,,-99.99,199.669998,,2013-03-17 16:12:00,
2013-03-17 09:42:00,50.0,24.0,-100.00,NW,317,5.0,8.0,36,-99.99,,,0.00,396.890015,,2013-03-17 16:42:00,
2013-03-17 09:52:00,50.0,24.0,-100.00,NW,317,5.0,8.0,36,-99.99,,,0.00,396.890015,,2013-03-17 16:52:00,
2013-03-17 10:02:00,50.0,24.0,-100.00,NW,317,5.0,8.0,36,-99.99,,,0.00,396.890015,,2013-03-17 17:02:00,
2013-03-17 10:12:00,50.0,24.0,-100.00,NW,317,5.0,8.0,36,-99.99,,,0.00,396.890015,,2013-03-17 17:12:00,
2013-03-17 10:42:00,54.0,22.0,-100.00,WNW,286,4.0,8.0,28,-99.99,,,0.00,512.760010,,2013-03-17 17:42:00,
2013-03-17 10:53:00,54.0,22.0,-100.00,WNW,286,4.0,8.0,28,-99.99,,,0.00,512.760010,,2013-03-17 17:53:00,
2013-03-17 11:02:00,54.0,22.0,-100.00,WNW,286,4.0,8.0,28,-99.99,,,0.00,512.760010,,2013-03-17 18:02:00,
2013-03-17 11:12:00,54.0,22.0,-100.00,WNW,286,4.0,8.0,28,-99.99,,,0.00,512.760010,,2013-03-17 18:12:00,
2013-03-17 11:42:00,56.0,18.0,-100.00,West,262,9.0,16.0,21,-99.99,,,0.00,721.380005,,2013-03-17 18:42:00,
2013-03-17 11:52:00,56.0,18.0,-100.00,West,262,9.0,16.0,21,-99.99,,,0.00,721.380005,,2013-03-17 18:52:00,
2013-03-17 12:02:00,56.0,18.0,-100.00,West,262,9.0,16.0,21,-99.99,,,0.00,721.380005,,2013-03-17 19:02:00,
2013-03-17 12:12:00,56.0,18.0,-100.00,West,262,9.0,16.0,21,-99.99,,,0.00,721.380005,,2013-03-17 19:12:00,
2013-03-17 12:41:00,59.0,12.0,-100.00,NNW,329,9.0,16.0,15,-99.99,,,0.00,810.869995,,2013-03-17 19:41:00,
2013-03-17 12:53:00,59.0,12.0,-100.00,NNW,329,9.0,16.0,15,-99.99,,,0.00,810.869995,,2013-03-17 19:53:00,
2013-03-17 13:02:00,59.0,12.0,-100.00,NNW,329,9.0,16.0,15,-99.99,,,0.00,810.869995,,2013-03-17 20:02:00,
2013-03-17 13:12:00,59.0,12.0,-100.00,NNW,329,9.0,16.0,15,-99.99,,,0.00,810.869995,,2013-03-17 20:12:00,
2013-03-17 13:42:00,60.0,8.0,-100.00,NNW,328,8.0,18.0,12,-99.99,,,0.00,840.270020,,2013-03-17 20:42:00,
2013-03-17 13:52:00,60.0,8.0,-100.00,NNW,328,8.0,18.0,12,-99.99,,,0.00,840.270020,,2013-03-17 20:52:00,
2013-03-17 14:02:00,60.0,8.0,-100.00,NNW,328,8.0,18.0,12,-99.99,,,0.00,840.270020,,2013-03-17 21:02:00,
2013-03-17 14:12:00,60.0,8.0,-100.00,NNW,328,8.0,18.0,12,-99.99,,,0.00,840.270020,,2013-03-17 21:12:00,
2013-03-17 14:42:00,61.0,8.0,-100.00,WNW,296,15.0,28.0,11,-99.99,,,0.00,807.849976,,2013-03-17 21:42:00,
2013-03-17 14:52:00,61.0,8.0,-100.00,WNW,296,15.0,28.0,11,-99.99,,,0.00,807.849976,,2013-03-17 21:52:00,
2013-03-17 15:02:00,61.0,8.0,-100.00,WNW,296,15.0,28.0,11,-99.99,,,0.00,807.849976,,2013-03-17 22:02:00,
2013-03-17 15:12:00,61.0,8.0,-100.00,WNW,296,15.0,28.0,11,-99.99,,,0.00,807.849976,,2013-03-17 22:12:00,
2013-03-17 15:42:00,62.0,7.0,-100.00,NW,313,12.0,23.0,10,-99.99,,,0.00,688.950012,,2013-03-17 22:42:00,
2013-03-17 15:52:00,62.0,7.0,-100.00,NW,313,12.0,23.0,10,-99.99,,,0.00,688.950012,,2013-03-17 22:52:00,
2013-03-17 16:02:00,62.0,7.0,-100.00,NW,313,12.0,23.0,10,-99.99,,,0.00,688.950012,,2013-03-17 23:02:00,
2013-03-17 16:12:00,62.0,7.0,-100.00,NW,313,12.0,23.0,10,-99.99,,,0.00,688.950012,,2013-03-17 23:12:00,
2013-03-17 16:42:00,63.0,6.0,-100.00,NW,317,14.0,26.0,10,-99.99,,,0.00,551.809998,,2013-03-17 23:42:00,
2013-03-17 16:52:00,63.0,6.0,-100.00,NW,317,14.0,26.0,10,-99.99,,,0.00,551.809998,,2013-03-17 23:52:00,
2013-03-17 17:02:00,63.0,6.0,-100.00,NW,317,14.0,26.0,10,-99.99,,,0.00,551.809998,,2013-03-18 00:02:00,
2013-03-17 17:11:00,63.0,6.0,-100.00,NW,317,14.0,26.0,10,-99.99,,,0.00,551.809998,,2013-03-18 00:11:00,
2013-03-17 18:42:00,59.0,5.0,-100.00,NNW,345,12.0,21.0,11,-99.99,,,-99.99,151.779999,,2013-03-18 01:42:00,
2013-03-17 18:52:00,59.0,5.0,-100.00,NNW,345,12.0,21.0,11,-99.99,,,-99.99,151.779999,,2013-03-18 01:52:00,
2013-03-17 19:02:00,59.0,5.0,-100.00,NNW,345,12.0,21.0,11,-99.99,,,-99.99,151.779999,,2013-03-18 02:02:00,
2013-03-17 19:12:00,59.0,5.0,-100.00,NNW,345,12.0,21.0,11,-99.99,,,-99.99,151.779999,,2013-03-18 02:12:00,
2013-03-17 19:42:00,56.0,7.0,-100.00,North,351,6.0,12.0,13,-99.99,,,0.00,2.560000,,2013-03-18 02:42:00,
2013-03-17 19:52:00,56.0,7.0,-100.00,North,351,6.0,12.0,13,-99.99,,,0.00,2.560000,,2013-03-18 02:52:00,
2013-03-17 20:02:00,56.0,7.0,-100.00,North,351,6.0,12.0,13,-99.99,,,0.00,2.560000,,2013-03-18 03:02:00,
2013-03-17 20:11:00,56.0,7.0,-100.00,North,351,6.0,12.0,13,-99.99,,,0.00,2.560000,,2013-03-18 03:11:00,
2013-03-17 20:42:00,56.0,7.0,-100.00,North,1,9.0,16.0,14,-99.99,,,0.00,0.000000,,2013-03-18 03:42:00,
2013-03-17 20:53:00,56.0,7.0,-100.00,North,1,9.0,16.0,14,-99.99,,,0.00,0.000000,,2013-03-18 03:53:00,
2013-03-17 21:02:00,56.0,7.0,-100.00,North,1,9.0,16.0,14,-99.99,,,0.00,0.000000,,2013-03-18 04:02:00,
2013-03-17 21:12:00,56.0,7.0,-100.00,North,1,9.0,16.0,14,-99.99,,,0.00,0.000000,,2013-03-18 04:12:00,
2013-03-17 21:42:00,49.0,9.0,-100.00,SSE,160,1.0,2.0,19,-99.99,,,0.00,0.000000,,2013-03-18 04:42:00,
2013-03-17 21:52:00,49.0,9.0,-100.00,SSE,160,1.0,2.0,19,-99.99,,,0.00,0.000000,,2013-03-18 04:52:00,
2013-03-17 22:02:00,49.0,9.0,-100.00,SSE,160,1.0,2.0,19,-99.99,,,0.00,0.000000,,2013-03-18 05:02:00,
2013-03-17 22:12:00,49.0,9.0,-100.00,SSE,160,1.0,2.0,19,-99.99,,,0.00,0.000000,,2013-03-18 05:12:00,
2013-03-17 22:43:00,47.0,9.0,-100.00,NW,306,5.0,6.0,20,-99.99,,,0.00,0.000000,,2013-03-18 05:43:00,
2013-03-17 22:52:00,47.0,9.0,-100.00,NW,306,5.0,6.0,20,-99.99,,,0.00,0.000000,,2013-03-18 05:52:00,
2013-03-17 23:02:00,47.0,9.0,-100.00,NW,306,5.0,6.0,20,-99.99,,,0.00,0.000000,,2013-03-18 06:02:00,
2013-03-17 23:12:00,47.0,9.0,-100.00,NW,306,5.0,6.0,20,-99.99,,,0.00,0.000000,,2013-03-18 06:12:00,
2013-03-17 23:42:00,36.0,12.0,-100.00,WSW,241,4.0,5.0,35,-99.99,,,0.00,0.000000,,2013-03-18 06:42:00,
2013-03-17 23:52:00,36.0,12.0,-100.00,WSW,241,4.0,5.0,35,-99.99,,,0.00,0.000000,,2013-03-18 06:52:00,